Date String (YYYY-MM-DD hh:mm:ss) UTC,Instrument flags,Ambient pressure (hPa),Sample flow (lpm),Bypass flow (lpm),Sample temperature (°C),Ambient temperature (°C),ASC tube jacket temperature (°C),LED temperature (°C),Box temperature (°C),Sample RH (%),Span deviation,Mass concentration (μg/m³),Mass concentration (μg/m³),Mass concentration (μg/m³)
DateTimeUTC,F1_M11,P_M11,Q1_M11,Q2_M11,T1_M11,T2_M11,T3_M11,T4_M11,T5_M11,U1_M11,ZSPAN_M11,X0_M11,X2_M11,X1_M11
2023-01-13 06:00:00,,0833.3,5.01,0.00,22.7,21.3,00.0,31.5,24.5,12.4,-000.3,0018.14,0011.97,0011.22
2023-01-13 06:01:00,,0833.2,5.00,0.00,22.7,21.3,00.0,31.5,24.5,12.4,-000.4,0018.28,0011.93,0011.17
2023-01-13 06:02:00,,0833.2,5.00,0.00,22.7,21.3,00.0,31.5,24.5,12.4,-000.3,0018.03,0011.92,0011.13
2023-01-13 06:03:00,,0833.2,5.00,0.00,22.7,21.3,00.0,31.5,24.5,12.3,-000.2,0017.76,0011.90,0011.09
2023-01-13 06:04:00,,0833.2,4.99,0.00,22.7,21.3,00.0,31.5,24.5,12.3,-000.3,0017.77,0011.86,0011.05
2023-01-13 06:05:00,,0833.1,5.00,0.00,22.7,21.3,00.0,31.5,24.4,12.3,-000.2,0017.68,0011.81,0011.01
2023-01-13 06:06:00,,0833.2,5.00,0.00,22.6,21.3,00.0,31.5,24.4,12.2,-000.2,0018.34,0011.77,0010.97
2023-01-13 06:07:00,,0833.2,4.99,0.00,22.6,21.3,00.0,31.5,24.4,12.2,-000.1,0018.45,0011.73,0010.91
2023-01-13 06:08:00,,0833.2,5.00,0.00,22.6,21.3,00.0,31.5,24.5,12.2,0000.0,0018.36,0011.73,0010.88
2023-01-13 06:09:00,,0833.2,5.01,0.00,22.6,21.3,00.0,31.5,24.5,12.2,0000.1,0018.96,0011.69,0010.82
2023-01-13 06:10:00,,0833.2,5.00,0.00,22.6,21.3,00.0,31.5,24.4,12.2,0000.4,0019.00,0011.66,0010.79
2023-01-13 06:11:00,,0833.2,5.00,0.00,22.6,21.2,00.0,31.5,24.4,12.3,0000.3,0018.76,0011.64,0010.77
2023-01-13 06:12:00,,0833.2,5.00,0.00,22.6,21.0,00.0,31.5,24.3,12.3,0000.3,0018.46,0011.61,0010.75
2023-01-13 06:13:00,,0833.2,4.99,0.00,22.6,20.8,00.0,31.5,24.3,12.4,0000.7,0018.23,0011.59,0010.73
2023-01-13 06:14:00,,0833.2,5.00,0.00,22.5,20.9,00.0,31.5,24.3,12.4,0000.8,0018.47,0011.52,0010.69
2023-01-13 06:15:00,,0833.2,4.99,0.00,22.5,20.9,00.0,31.5,24.3,12.3,0000.5,0018.22,0011.48,0010.66
2023-01-13 06:16:00,,0833.3,5.00,0.00,22.5,21.0,00.0,31.4,24.3,12.3,0000.5,0018.71,0011.45,0010.63
2023-01-13 06:17:00,,0833.3,5.00,0.00,22.5,21.0,00.0,31.4,24.3,12.3,0000.6,0018.14,0011.41,0010.60
2023-01-13 06:18:00,,0833.2,5.00,0.00,22.5,21.1,00.0,31.4,24.3,12.4,0000.5,0018.50,0011.40,0010.58
2023-01-13 06:19:00,,0833.2,4.99,0.00,22.5,21.0,00.0,31.4,24.3,12.4,0000.4,0018.62,0011.34,0010.55
2023-01-13 06:20:00,,0833.2,5.00,0.00,22.5,21.0,00.0,31.4,24.2,12.4,0000.1,0018.08,0011.30,0010.55
2023-01-13 06:21:00,,0833.2,5.00,0.00,22.4,21.0,00.0,31.4,24.2,12.4,-000.4,0017.94,0011.27,0010.55
2023-01-13 06:22:00,,0833.2,5.01,0.00,22.4,21.0,00.0,31.4,24.2,12.5,-000.3,0017.82,0011.26,0010.55
2023-01-13 06:23:00,,0833.1,4.99,0.00,22.4,21.0,00.0,31.4,24.2,12.5,-000.4,0017.74,0011.19,0010.52
2023-01-13 06:24:00,,0833.1,5.01,0.00,22.4,21.0,00.0,31.4,24.2,12.5,-000.6,0018.05,0011.12,0010.50
2023-01-13 06:25:00,,0833.1,5.00,0.00,22.4,21.0,00.0,31.4,24.2,12.5,-000.4,0017.69,0011.14,0010.50
2023-01-13 06:26:00,,0833.1,5.00,0.00,22.4,21.0,00.0,31.4,24.2,12.5,-000.2,0018.13,0011.14,0010.50
2023-01-13 06:27:00,,0833.1,5.01,0.00,22.4,21.1,00.0,31.4,24.2,12.4,-000.3,0017.59,0011.13,0010.50
2023-01-13 06:28:00,,0833.1,5.01,0.00,22.4,21.1,00.0,31.3,24.2,12.4,-000.5,0017.39,0011.14,0010.52
2023-01-13 06:29:00,,0833.1,5.01,0.00,22.4,21.0,00.0,31.3,24.1,12.4,-000.7,0017.21,0011.18,0010.53
2023-01-13 06:30:00,,0833.1,5.01,0.00,22.4,21.0,00.0,31.3,24.1,12.4,-000.7,0016.79,0011.14,0010.52
2023-01-13 06:31:00,,0833.0,5.00,0.00,22.4,21.0,00.0,31.3,24.2,12.4,-000.6,0016.48,0011.13,0010.52
2023-01-13 06:32:00,,0833.0,4.99,0.00,22.4,21.0,00.0,31.3,24.1,12.4,-000.4,0016.59,0011.14,0010.50
2023-01-13 06:33:00,,0833.0,5.00,0.00,22.4,21.1,00.0,31.3,24.2,12.4,-000.3,0016.58,0011.10,0010.46
2023-01-13 06:34:00,,0833.0,5.02,0.00,22.5,21.6,00.0,31.3,24.4,12.3,-000.5,0016.64,0011.10,0010.46
2023-01-13 06:35:00,,0833.0,5.00,0.00,22.6,22.4,00.0,31.3,24.6,12.2,-000.4,0016.29,0011.10,0010.45
2023-01-13 06:36:00,,0832.9,5.00,0.00,22.7,22.8,00.0,31.3,24.8,12.2,-000.6,0016.22,0011.10,0010.44
2023-01-13 06:37:00,,0832.8,4.98,0.00,22.7,22.5,00.0,31.4,24.7,12.1,-000.7,0015.70,0011.08,0010.43
2023-01-13 06:38:00,,0832.8,5.00,0.00,22.7,22.1,00.0,31.4,24.7,12.2,-000.8,0015.56,0011.05,0010.42
2023-01-13 06:39:00,,0832.8,5.00,0.00,22.7,21.8,00.0,31.4,24.6,12.2,-000.8,0015.58,0011.04,0010.40
2023-01-13 06:40:00,,0832.8,5.00,0.00,22.7,21.5,00.0,31.4,24.5,12.3,-000.7,0015.57,0011.10,0010.45
2023-01-13 06:41:00,,0832.8,5.01,0.00,22.7,21.4,00.0,31.5,24.4,12.3,-000.7,0015.64,0011.17,0010.51
2023-01-13 06:42:00,,0832.9,4.99,0.00,22.6,21.3,00.0,31.5,24.4,12.3,-000.1,0015.76,0011.20,0010.54
2023-01-13 06:43:00,,0832.9,5.01,0.00,22.6,21.0,00.0,31.5,24.3,12.2,0000.3,0016.18,0011.21,0010.58
2023-01-13 06:44:00,,0832.8,5.00,0.00,22.5,20.8,00.0,31.5,24.2,12.2,0000.3,0017.31,0011.21,0010.59
2023-01-13 06:45:00,,0832.8,5.01,0.00,22.5,20.6,00.0,31.4,24.1,12.3,0000.6,0017.47,0011.26,0010.64
2023-01-13 06:46:00,,0832.8,5.00,0.00,22.4,20.4,00.0,31.4,24.0,12.3,0000.6,0017.53,0011.35,0010.70
2023-01-13 06:47:00,,0832.8,5.00,0.00,22.4,20.3,00.0,31.4,24.0,12.3,0000.6,0017.65,0011.42,0010.73
2023-01-13 06:48:00,,0832.8,5.00,0.00,22.3,20.3,00.0,31.4,23.9,12.3,0000.5,0017.77,0011.46,0010.75
2023-01-13 06:49:00,,0832.7,5.00,0.00,22.3,20.2,00.0,31.3,23.9,12.5,0000.5,0017.97,0011.56,0010.82
2023-01-13 06:50:00,,0832.7,4.99,0.00,22.2,20.1,00.0,31.3,23.8,12.5,0000.6,0018.08,0011.65,0010.88
2023-01-13 06:51:00,,0832.8,5.00,0.00,22.1,20.0,00.0,31.3,23.7,12.6,0000.8,0018.39,0011.67,0010.89
2023-01-13 06:52:00,,0832.8,5.00,0.00,22.1,19.9,00.0,31.3,23.6,12.8,0000.8,0018.73,0011.66,0010.87
2023-01-13 06:53:00,,0832.8,5.01,0.00,22.0,19.8,00.0,31.2,23.5,12.8,0000.5,0018.82,0011.69,0010.86
2023-01-13 06:54:00,,0832.8,5.00,0.00,22.0,19.8,00.0,31.2,23.4,12.9,-000.1,0018.40,0011.70,0010.86
2023-01-13 06:55:00,,0832.7,5.01,0.00,21.9,20.0,00.0,31.1,23.5,12.9,-000.3,0017.44,0011.79,0010.92
2023-01-13 06:56:00,,0832.7,5.01,0.00,22.0,21.0,00.0,31.1,23.7,12.8,-000.4,0017.40,0011.84,0010.94
2023-01-13 06:57:00,,0832.7,5.00,0.00,22.1,22.1,00.0,31.0,24.0,12.8,-000.3,0017.40,0011.83,0010.93
2023-01-13 06:58:00,,0832.7,4.99,0.00,22.2,22.5,00.0,31.1,24.2,12.8,-000.3,0017.42,0011.81,0010.96
2023-01-13 06:59:00,,0832.7,4.99,0.00,22.3,22.1,00.0,31.1,24.2,12.6,-000.2,0017.53,0011.84,0010.97
